St. Joseph, KS

1:54 AM CST on December 09, 2019 (GMT -0600)
Rosecrans Memorial

Weather History for KSTJ - October, 2019

Change the Weather History Date:

Friday, October 18, 2019

  Actual Average Record
Temperature  
Mean Temperature 63 °F 54 °F  
Max Temperature 75 °F 66 °F 88 °F (1945)
Min Temperature 50 °F 42 °F 27 °F (1999)
Degree Days  
Heating Degree Days 2 11  
Month to date heating degree days 171 158  
Since 1 July heating degree days 176 238  
Cooling Degree Days 0 0  
Month to date cooling degree days 17 18  
Year to date cooling degree days 1466 1217  
Growing Degree Days 12 (Base 50)    
Moisture  
Dew Point 45 °F    
Average Humidity 57    
Maximum Humidity 80    
Minimum Humidity 33    
Precipitation  
Precipitation 0.00 in 0.09 in 1.49 in (1979)
Month to date precipitation 2.35 1.68  
Year to date precipitation 35.95 31.40  
Sea Level Pressure  
Sea Level Pressure 29.74 in    
Wind  
Wind Speed 13 mph (SSE)    
Max Wind Speed 26 mph    
Max Gust Speed 40 mph    
Visibility 10 miles    
Events      
T = Trace of Precipitation, MM = Missing Value Source: NWS Daily Summary

Daily Weather History Graph

Daily Weather History Graph

Search for Another Location

Airport or City:

Astronomy

Oct. 18, 2019 Rise Set
Actual Time 7:32 AM CDT 6:36 PM CDT
Civil Twilight 7:05 AM CDT 7:03 PM CDT
Nautical Twilight 6:34 AM CDT 7:34 PM CDT
Astronomical Twilight 6:02 AM CDT 8:05 PM CDT
Moon 9:54 PM CDT (10/18) 12:06 PM CDT (10/18)
Length of Visible Light 11h 57m
Length of Day
11h 03m
Waning Gibbous, 78% of the Moon is Illuminated
Oct 18
Waning Gibbous
Oct 21
Last Quarter
Oct 27
New
Nov 4
First Quarter
Nov 12
Full

Hourly Weather History & Observations

Time (CDT) Temp. Dew Point Humidity Pressure Visibility Wind Dir Wind Speed Gust Speed Precip Events Conditions
12:53 AM 52.0 °F 44.1 °F 74% 29.85 in 10.0 mi SSE 6.9 mph - N/A   Clear
1:53 AM 52.0 °F 44.1 °F 74% 29.85 in 10.0 mi ESE 5.8 mph - N/A   Clear
2:53 AM 50.0 °F 44.1 °F 80% 29.84 in 10.0 mi SE 8.1 mph - N/A   Clear
3:53 AM 51.1 °F 45.0 °F 80% 29.83 in 10.0 mi SSE 8.1 mph - N/A   Clear
4:53 AM 52.0 °F 45.0 °F 77% 29.82 in 10.0 mi SSE 11.5 mph - N/A   Clear
5:53 AM 51.1 °F 45.0 °F 80% 29.82 in 10.0 mi South 10.4 mph - N/A   Clear
6:53 AM 51.1 °F 45.0 °F 80% 29.82 in 10.0 mi SSE 12.7 mph - N/A   Clear
7:53 AM 52.0 °F 45.0 °F 77% 29.81 in 10.0 mi South 15.0 mph 23.0 mph N/A   Clear
8:53 AM 55.0 °F 46.0 °F 72% 29.80 in 10.0 mi South 16.1 mph - N/A   Clear
9:53 AM 60.1 °F 46.0 °F 60% 29.79 in 10.0 mi South 13.8 mph - N/A   Clear
10:53 AM 64.9 °F 45.0 °F 48% 29.77 in 10.0 mi South 19.6 mph 28.8 mph N/A   Clear
11:53 AM 69.1 °F 44.1 °F 40% 29.75 in 10.0 mi South 16.1 mph 28.8 mph N/A   Clear
1:53 PM 73.9 °F 43.0 °F 33% 29.68 in 10.0 mi South 16.1 mph 32.2 mph N/A   Clear
2:53 PM 73.9 °F 43.0 °F 33% 29.65 in 10.0 mi South 23.0 mph 35.7 mph N/A   Clear
3:53 PM 73.9 °F 44.1 °F 34% 29.65 in 10.0 mi SSE 16.1 mph 28.8 mph N/A   Clear
4:53 PM 72.0 °F 44.1 °F 37% 29.64 in 10.0 mi South 19.6 mph 31.1 mph N/A   Clear
5:53 PM 69.1 °F 45.0 °F 42% 29.64 in 10.0 mi SSE 12.7 mph - N/A   Clear
6:53 PM 66.0 °F 44.1 °F 45% 29.62 in 10.0 mi South 12.7 mph 21.9 mph N/A   Clear
7:53 PM 64.0 °F 45.0 °F 50% 29.63 in 10.0 mi South 9.2 mph - N/A   Clear
8:53 PM 63.0 °F 46.9 °F 56% 29.65 in 10.0 mi SSE 11.5 mph - N/A   Clear
9:53 PM 61.0 °F 46.9 °F 60% 29.69 in 10.0 mi Calm Calm - N/A   Clear
10:53 PM 57.0 °F 48.0 °F 72% 29.69 in 10.0 mi South 6.9 mph - N/A   Scattered Clouds
11:53 PM 59.0 °F 48.9 °F 69% 29.70 in 10.0 mi SSE 6.9 mph - N/A   Overcast